Tracking 18840 objects as of 17-November-2017
HD Live streaming from Space Station
objects crossing your sky now

FENGYUN 1C DEB

Track FENGYUN 1C DEB now!
10-day predictions


NORAD ID: 30164
Int'l Code: 1999-025TV
Perigee: 714.7 km
Apogee: 1,331.7 km
Inclination: 99.5 °
Period: 105.5 minutes
Semi major axis: 7394 km
RCS: 0.0546 m2 (small)
Launch date: May 10, 1999
Source: People's Republic of China (PRC)
Launch site: Taiyaun Space Center, China (TSC)

Note: This is SATELLITE DEBRIS
aabbcc
Your satellite tracking list
Your tracking list is empty




NASA's NSSDC Master Catalog

Two Line Element Set (TLE):
1 30164U 99025TV  17321.19678561  .00003737  00000-0  25529-2 0  9991
2 30164  99.5235 127.9986 0417247  10.5094 350.4446 13.65419988530890
Source of the keplerian elements: AFSPC